Showing default

IRIDE-MS1-EAG2-11, 68453

Orbit data source: Space-Track

IRIDE-MS1-EAG2-11, 68453 is an Italian payload satellite in SSO that was launched on Mon, 30 Mar 2026 UTC via an FALCON 9 launch vehicle from the Air Force Western Test Range (AFWTR). Payload-class satellites include a variety of spacecraft equipped with specific instruments for various scientific and technological missions. These include communications satellites like Starlink; space stations such as the ISS; scientific satellites like the Hubble; Earth observation satellites from companies like Planet Labs, Umbra, and HawkEye 360; GPS; miniature CubeSats for education and research; and military/defense satellites.

Loading next visibility...
Identifier
68453, 2026-067AP
Orbit
SSO
Country
Flag of ITIT
Related business
Manufacturer
OHB-I
Mission
Operational Commercial Technology
Bus & Motor
EAGLET, Unknown motor
Mass
25 kg wet, 25 kg dry
Launch date (UTC)
2026-03-30 (3 months ago)
Launch vehicle
FALCON 9
Launch site
Air Force Western Test Range (AFWTR)
Object type
Payload
Rocket body
Debris
Shape & HBR
Box + 2 Pan, 1.0 m
Radar Cross Section
0.368 m², Medium (>0.1 m² and < 1m²)

Expand to show TLE details & history
Last TLE update: 14 hours ago

TLE from 14 hours ago
0 IRIDE-MS1-EAG2-11
1 68453U 26067AP  26193.82043272  .00005263  00000-0  25393-3 0  9997
2 68453  97.4558 151.9840 0000900   0.5902 359.5333 15.19113167 15832
Epoch: 2026-07-12T19:41Z
TLE epoch observation values (Epoch: 2026-07-12T19:41:25.387Z)
Latitude
-0.0001°
Longitude
-74.08557°
Altitude
510.987 km
Speed
7.609 km/s
True Right ascension
10h 07m 56s
True Declination
0° 00' 00"
Sunlit
Object was in daylight at epoch
Visualization orbit readout
Latitude
Unknown
Longitude
Unknown
Altitude
Unknown
Speed
Unknown
Apparent Right ascension
Unknown
Apparent Declination
Unknown
Sunlit
N/A
Visualization observer readout
Local Sidereal Time
22:20:34
Azimuth
Unknown
Elevation
Unknown
Doppler factor
Unknown
Orbital elements
Apogee altitude
506.108 km
Perigee altitude
504.869 km
Semi-major axis
6,883.626 km
Eccentricity
0.00009
Inclination
97.4558°
RAAN
151.984°
Arg. of periapsis
0.5902°
True anomaly
359.53322°
Mean anomaly
359.5333°
Eccentric anomaly
359.53326°
Mean motion
3.80029 °/min
Orbital period
94.73 mins
BSTAR
0.00025393
Loading maneuver chart data...
Computing Atmospheric mass density...
Loading historical data...
Loading historical data...
Loading historical data...
Loading historical data...
Loading historical data...
Loading historical data...
Loading historical data...

Documentation

Showing up to 5 results
|